Regional Weather Roundup
Issued by NWS

Home | Current Version | Previous Version | Graphics & Text | Print | Product List | Glossary On
Versions: 1 2 3 4 5 6 7 8 9 10 11 12 13 14 15 16 17 18 19 20 21 22 23 24 25 26 27 28 29 30 31 32
000
ASUS45 KCYS 220410
RWRWY

WYOMING REGIONAL WEATHER ROUNDUP
NATIONAL WEATHER SERVICE CHEYENNE WY
1000 PM MDT TUE OCT 21 2014

NOTE:  "FAIR" INDICATES FEW OR NO CLOUDS BELOW 12,000 FEET
WITH NO SIGNIFICANT WEATHER AND/OR OBSTRUCTIONS TO VISIBILITY.

WYZ001-220500-
YELLOWSTONE NATIONAL PARK

CITY           SKY/WX    TMP DP  RH WIND       PRES   REMARKS
LK YELLOWSTONE   N/A     32  29  88 CALM      30.11R
W YELLOWSTONE  NOT AVBL

$$
WYZ002>013-054>058-071-098>099-220500-
NORTHERN WYOMING

CITY           SKY/WX    TMP DP  RH WIND       PRES   REMARKS
JACKSON        PTCLDY    37  28  70 E7        30.07R WCI  32
CODY           PTCLDY   N/A N/A N/A W13G25    29.94R
GREYBULL       PTCLDY    53  20  27 NW8       29.91R
WORLAND        LGT RAIN  50  25  37 N9        29.92R
SHERIDAN       CLOUDY    58  24  27 NW21G26   29.82R
BUFFALO        MOCLDY    61  32  33 NE14G23   29.86R
GILLETTE       PTCLDY    62  35  36 W14G23    29.80R
HULETT         MOCLDY    68  34  28 SW8       29.81
NEWCASTLE      FAIR      59  36  41 SE12      29.85

$$
WYZ014>020-022>026-101>103-220500-
CENTRAL WYOMING

CITY           SKY/WX    TMP DP  RH WIND       PRES   REMARKS
BIG PINEY      CLEAR     33  24  69 N12       30.09R WCI  24
PINEDALE       CLEAR     30  27  86 W8        30.09S WCI  23
DUBOIS         FAIR      36  23  60 W15       30.05R WCI  26
LANDER         CLEAR     46  22  38 NW15      29.96R
RIVERTON       CLEAR     46  23  40 NW24G33   29.96R
CASPER         PTCLDY    51  38  60 SW10      29.94R
DOUGLAS        CLOUDY    58  39  49 SW13      29.92F

$$
WYZ021-027>030-104>119-220500-
SOUTHERN WYOMING

CITY           SKY/WX    TMP DP  RH WIND       PRES   REMARKS
EVANSTON       PTCLDY    41  22  46 N5        30.12R
KEMMERER       CLEAR     34  27  75 CALM      30.12R
FORT BRIDGER   MOCLDY    42  26  52 W6        30.14R
ROCK SPRINGS   CLOUDY    44  31  60 SW14      30.10R
DIXON          RAIN      47  41  80 W8        30.14R
RAWLINS        CLOUDY    47  40  76 SW8       30.08R
SARATOGA       CLOUDY    41  39  93 SE7       30.11R
LARAMIE        CLOUDY    48  40  73 SW16      30.07R
CHEYENNE       LGT RAIN  55  41  59 NW13G21   29.99S
TORRINGTON     CLOUDY    61  42  49 VRB3      29.88S
PINE BLUFFS    DRIZZLE   54  41  62 SW5       29.96R

$$



USA.gov is the U.S. government's official web portal to all federal, state and local government web resources and services.